Weather History for KODX - October, 2011

Change the Weather History Date:

Wednesday, October 5, 2011

  Actual Average Record
Temperature  
Mean Temperature 67 °F 54 °F  
Max Temperature 83 °F 69 °F 90 °F (2007)
Min Temperature 50 °F 40 °F 23 °F (2012)
Degree Days  
Heating Degree Days 0 11  
Month to date heating degree days 18 52  
Since 1 July heating degree days 225 189  
Cooling Degree Days 2 1  
Month to date cooling degree days 6 5  
Year to date cooling degree days 913 843  
Growing Degree Days 16 (Base 50)    
Moisture  
Dew Point 40 °F    
Average Humidity 46    
Maximum Humidity 71    
Minimum Humidity 20    
Precipitation  
Precipitation 0.00 in 0.07 in 2.21 in (1948)
Month to date precipitation 0.00 0.38  
Year to date precipitation 20.05 21.73  
Sea Level Pressure  
Sea Level Pressure 29.90 in    
Wind  
Wind Speed 15 mph (SSE)    
Max Wind Speed 30 mph    
Max Gust Speed 43 mph    
Visibility 10 miles    
Events      
T = Trace of Precipitation, MM = Missing Value Source: NWS Daily Summary

Daily Weather History Graph

Daily Weather History Graph

Search for Another Location

Airport or City:

Trip Planner

Search our weather history database for the weather conditions in past years. The results will help you decide how hot, cold, wet, or windy it might be!

Date:

Astronomy

Oct. 05, 2011 Rise Set
Actual Time 7:36 AM CDT 7:11 PM CDT
Civil Twilight 7:08 AM CDT 7:38 PM CDT
Nautical Twilight 6:36 AM CDT 8:10 PM CDT
Astronomical Twilight 6:04 AM CDT 8:43 PM CDT
Moon 3:56 PM CDT (10/5) 1:19 AM CDT (10/5)
Length of Visible Light 12h 29m
Length of Day
11h 34m
Waxing Gibbous, 66% of the Moon is Illuminated
Oct 5
Waxing Gibbous
Oct 11
Full
Oct 19
Last Quarter
Oct 26
New
Nov 2
First Quarter

Hourly Weather History & Observations

Time (CDT) Temp. Dew Point Humidity Pressure Visibility Wind Dir Wind Speed Gust Speed Precip Events Conditions
12:53 AM 71.1 °F 42.1 °F 35% 29.96 in 10.0 mi South 15.0 mph 23.0 mph N/A   Clear
1:53 AM 69.1 °F 42.1 °F 38% 29.96 in 10.0 mi South 15.0 mph 19.6 mph N/A   Clear
2:53 AM 66.9 °F 43.0 °F 42% 29.96 in 10.0 mi South 12.7 mph - N/A   Clear
3:53 AM 64.9 °F 42.1 °F 43% 29.95 in 10.0 mi South 12.7 mph - N/A   Clear
4:53 AM 64.0 °F 42.1 °F 45% 29.95 in 10.0 mi South 9.2 mph - N/A   Clear
5:53 AM 61.0 °F 42.1 °F 50% 29.95 in 10.0 mi South 6.9 mph - N/A   Clear
6:53 AM 52.0 °F 43.0 °F 71% 29.96 in 10.0 mi ENE 4.6 mph - N/A   Clear
7:53 AM 51.8 °F 42.8 °F 71% 29.98 in 10.0 mi ESE 5.8 mph - N/A   Clear
8:53 AM 57.2 °F 44.6 °F 63% 29.98 in 10.0 mi SE 3.5 mph - N/A   Clear
9:53 AM 66.9 °F 41.0 °F 39% 29.94 in 10.0 mi South 15.0 mph 21.9 mph N/A   Clear
10:53 AM 73.0 °F 39.0 °F 29% 29.93 in 10.0 mi South 18.4 mph 24.2 mph N/A   Clear
11:53 AM 77.0 °F 37.9 °F 24% 29.91 in 10.0 mi South 18.4 mph 25.3 mph N/A   Clear
12:53 PM 80.1 °F 36.0 °F 20% 29.88 in 10.0 mi SSE 24.2 mph 33.4 mph N/A   Clear
1:53 PM 80.6 °F 35.6 °F 20% 29.90 in 10.0 mi South 27.6 mph 36.8 mph N/A   Clear
2:53 PM 82.0 °F 37.9 °F 21% 29.84 in 10.0 mi SSE 20.7 mph 38.0 mph N/A   Clear
3:53 PM 82.0 °F 37.9 °F 21% 29.82 in 10.0 mi SSE 23.0 mph 38.0 mph N/A   Clear
4:53 PM 79.0 °F 39.0 °F 24% 29.81 in 10.0 mi SSE 20.7 mph 32.2 mph N/A   Clear
5:53 PM 78.8 °F 37.4 °F 23% 29.84 in 10.0 mi SSE 20.7 mph 35.7 mph N/A   Clear
6:53 PM 75.9 °F 37.0 °F 24% 29.83 in 10.0 mi SSE 13.8 mph 25.3 mph N/A   Clear
7:53 PM 72.0 °F 39.0 °F 30% 29.83 in 10.0 mi SE 12.7 mph 24.2 mph N/A   Clear
8:53 PM 70.0 °F 41.0 °F 35% 29.84 in 10.0 mi SE 12.7 mph - N/A   Clear
9:53 PM 68.0 °F 42.1 °F 39% 29.84 in 10.0 mi SSE 12.7 mph 21.9 mph N/A   Clear
10:53 PM 68.0 °F 43.0 °F 40% 29.83 in 10.0 mi SSE 16.1 mph 25.3 mph N/A   Clear
11:53 PM 66.9 °F 44.1 °F 44% 29.83 in 10.0 mi SSE 16.1 mph 25.3 mph N/A   Clear